TimeAST,TemperatureF,Dew PointF,Humidity,Sea Level PressureIn,VisibilityMPH,Wind Direction,Wind SpeedMPH,Gust SpeedMPH,PrecipitationIn,Events,Conditions,WindDirDegrees,DateUTC
12:28 AM,82.4,75.2,79,30.10,9.0,East,6.9,-,N/A,,Overcast,90,2013-06-13 04:28:00
12:53 AM,82.0,75.9,82,30.09,7.0,East,10.4,18.4,0.00,Rain,Light Rain,100,2013-06-13 04:53:00
1:32 AM,82.4,75.2,79,30.09,9.0,East,9.2,-,0.00,,Overcast,100,2013-06-13 05:32:00
1:45 AM,82.4,75.2,79,30.08,9.0,ESE,12.7,18.4,0.00,,Overcast,110,2013-06-13 05:45:00
1:53 AM,82.0,75.0,79,30.08,9.0,East,10.4,18.4,0.00,,Overcast,100,2013-06-13 05:53:00
2:53 AM,82.0,75.9,82,30.08,9.0,East,9.2,-,N/A,,Overcast,100,2013-06-13 06:53:00
3:53 AM,82.0,75.9,82,30.08,9.0,East,8.1,-,N/A,,Overcast,100,2013-06-13 07:53:00
4:09 AM,82.4,75.2,79,30.07,10.0,East,6.9,-,N/A,,Overcast,90,2013-06-13 08:09:00
4:49 AM,82.4,75.2,79,30.07,9.0,East,5.8,-,N/A,,Overcast,100,2013-06-13 08:49:00
4:53 AM,82.0,75.9,82,30.07,9.0,East,8.1,-,N/A,,Overcast,100,2013-06-13 08:53:00
5:03 AM,82.4,75.2,79,30.07,9.0,East,9.2,-,N/A,,Overcast,100,2013-06-13 09:03:00
5:14 AM,82.4,75.2,79,30.07,9.0,East,8.1,17.3,N/A,,Overcast,100,2013-06-13 09:14:00
5:33 AM,82.4,75.2,79,30.07,9.0,East,11.5,-,N/A,,Overcast,100,2013-06-13 09:33:00
5:53 AM,82.0,75.0,79,30.07,9.0,East,9.2,-,N/A,,Overcast,100,2013-06-13 09:53:00
6:53 AM,82.9,75.9,79,30.07,8.0,East,8.1,-,N/A,,Overcast,100,2013-06-13 10:53:00
7:53 AM,84.0,75.9,76,30.09,8.0,ENE,9.2,-,N/A,,Overcast,70,2013-06-13 11:53:00
8:44 AM,84.2,75.2,74,30.09,9.0,East,9.2,-,N/A,,Overcast,80,2013-06-13 12:44:00
8:53 AM,84.9,75.9,74,30.09,9.0,East,8.1,-,N/A,,Overcast,90,2013-06-13 12:53:00
9:27 AM,84.2,75.2,74,30.09,8.0,East,10.4,-,N/A,,Overcast,90,2013-06-13 13:27:00
9:42 AM,84.2,75.2,74,30.10,9.0,East,8.1,-,N/A,,Overcast,90,2013-06-13 13:42:00
9:53 AM,84.9,75.0,72,30.10,9.0,East,10.4,-,N/A,,Overcast,80,2013-06-13 13:53:00
10:53 AM,87.1,78.1,74,30.10,8.0,ENE,8.1,-,N/A,,Overcast,60,2013-06-13 14:53:00
11:09 AM,87.8,78.8,75,30.10,8.0,East,9.2,-,N/A,,Overcast,80,2013-06-13 15:09:00
11:53 AM,87.1,79.0,77,30.10,8.0,ENE,11.5,18.4,N/A,,Overcast,70,2013-06-13 15:53:00
12:35 PM,87.8,78.8,75,30.09,9.0,ENE,12.7,-,N/A,,Scattered Clouds,60,2013-06-13 16:35:00
12:48 PM,87.8,78.8,75,30.08,9.0,ENE,12.7,-,N/A,,Mostly Cloudy,60,2013-06-13 16:48:00
12:53 PM,87.1,78.1,74,30.08,9.0,ENE,11.5,-,N/A,,Mostly Cloudy,60,2013-06-13 16:53:00
1:53 PM,84.9,79.0,82,30.07,7.0,ENE,9.2,-,0.00,Rain,Light Rain,60,2013-06-13 17:53:00
2:53 PM,84.9,78.1,80,30.05,6.0,ENE,11.5,-,0.01,Rain,Light Rain,70,2013-06-13 18:53:00
3:53 PM,82.9,79.0,88,30.04,5.0,ENE,9.2,-,0.04,Rain,Light Rain,70,2013-06-13 19:53:00
4:53 PM,84.0,79.0,85,30.03,8.0,East,10.4,-,0.00,,Overcast,90,2013-06-13 20:53:00
5:53 PM,84.0,77.0,79,30.03,10.0,East,9.2,-,N/A,,Overcast,100,2013-06-13 21:53:00
6:53 PM,82.9,75.9,79,30.04,10.0,East,9.2,-,N/A,,Overcast,100,2013-06-13 22:53:00
7:53 PM,82.9,75.9,79,30.05,10.0,East,10.4,17.3,N/A,,Overcast,100,2013-06-13 23:53:00
8:40 PM,82.4,75.2,79,30.06,10.0,ESE,10.4,17.3,N/A,,Overcast,110,2013-06-14 00:40:00
8:53 PM,82.9,77.0,82,30.07,8.0,East,9.2,-,0.00,Rain,Light Rain,90,2013-06-14 00:53:00
9:53 PM,81.0,77.0,88,30.07,9.0,East,8.1,-,0.00,,Overcast,100,2013-06-14 01:53:00
10:30 PM,80.6,77.0,89,30.07,1.8,SSE,12.7,17.3,0.12,Rain,Heavy Rain,160,2013-06-14 02:30:00
10:43 PM,78.8,75.2,89,30.08,3.0,SE,5.8,-,0.19,Rain,Light Rain,130,2013-06-14 02:43:00
10:53 PM,80.1,77.0,90,30.08,7.0,ESE,8.1,-,0.19,Rain,Light Rain,110,2013-06-14 02:53:00
11:49 PM,80.6,78.8,94,30.07,9.0,East,6.9,-,0.00,,Overcast,100,2013-06-14 03:49:00
11:53 PM,81.0,78.1,91,30.07,9.0,East,5.8,-,0.00,,Overcast,100,2013-06-14 03:53:00